[Date Prev][Date Next][Thread Prev][Thread Next] - [Date Index][Thread Index][Author Index]

2 Line ISS Keos 10-19



ISS
1 25544U 98067A   02292.12452068  .00110070  00000-0  14802-2 0  2790
2 25544  51.6328 150.4948 0014974  47.7323  92.7503 15.56903558223302

----
Via the sarex mailing list at AMSAT.ORG courtesy of AMSAT-NA.
To unsubscribe, send "unsubscribe sarex" to Majordomo@amsat.org



AMSAT Top AMSAT Home